This is the latest recevied weather packets stored in our database for station/object NN5DX-12. If no packets are shown the sender has not sent any weather packets the latest 10 day(s).
| Time | Temp. | Humidity | Pressure | Rain* | Wind** | Luminosity | Snow |
|---|---|---|---|---|---|---|---|
| 1777808716 | 7.22° C | 33% | 1024.5 hPa | 0 mm | - | - | - |
| 1777808415 | 7.22° C | 33% | 1024.6 hPa | 0 mm | - | - | - |
| 1777808116 | 7.22° C | 32% | 1024.6 hPa | 0 mm | - | - | - |
| 1777807816 | 7.22° C | 32% | 1024.5 hPa | 0 mm | - | - | - |
| 1777807516 | 7.22° C | 33% | 1025.2 hPa | 0 mm | - | - | - |
| 1777807216 | 7.22° C | 33% | 1025.1 hPa | 0 mm | - | - | - |
| 1777806916 | 7.22° C | 33% | 1025.1 hPa | 0 mm | - | - | - |
| 1777806616 | 7.78° C | 32% | 1025.2 hPa | 0 mm | - | - | - |
| 1777806316 | 7.78° C | 32% | 1025.1 hPa | 0 mm | - | - | - |
| 1777806016 | 7.78° C | 31% | 1025.2 hPa | 0 mm | - | - | - |
| 1777805716 | 7.78° C | 32% | 1025.8 hPa | 0 mm | - | - | - |
| 1777805416 | 7.78° C | 32% | 1025.8 hPa | 0 mm | - | - | - |
| 1777805116 | 7.78° C | 32% | 1025.4 hPa | 0 mm | - | - | - |
| 1777804816 | 7.22° C | 34% | 1025.5 hPa | 0 mm | - | - | - |
| 1777804516 | 7.22° C | 34% | 1025.6 hPa | 0 mm | - | - | - |
| 1777804216 | 7.22° C | 34% | 1025.6 hPa | 0 mm | - | - | - |
| 1777803915 | 7.22° C | 34% | 1025.6 hPa | 0 mm | - | - | - |
| 1777803616 | 7.22° C | 34% | 1025.7 hPa | 0 mm | - | - | - |
| 1777803316 | 7.22° C | 35% | 1025.6 hPa | 0 mm | - | - | - |
| 1777803016 | 6.67° C | 35% | 1025.7 hPa | 0 mm | - | - | - |
| 1777802715 | 6.67° C | 36% | 1025.8 hPa | 0 mm | - | - | - |
| 1777802416 | 6.67° C | 36% | 1025.2 hPa | 0 mm | - | - | - |
| 1777802116 | 6.11° C | 37% | 1025.2 hPa | 0 mm | - | - | - |
| 1777801815 | 6.11° C | 38% | 1025.3 hPa | 0 mm | - | - | - |
| 1777801516 | 5.56° C | 40% | 1025.4 hPa | 0 mm | - | - | - |
* Rain latest hour (hover to see other rain measurements)
** Current wind speed in m/s (hover to see current wind gust speed)